カタログに戻る

JILIN-1 GAOFEN 07D 02 XING

運用中科学SSO
NORAD 69543·PAYLOAD·🇨🇳 China
この衛星名は、まだ公式ソースで確認されていません。

打ち上げ Jun 15, 2026 から Jiuquan Satellite Launch Center

Loading…

次のパス (今後24時間)

TLE

最新Source: Space-Track

元期: Sep 13, 2026, 19:13 UTC

1 69543U 26134F   26256.80088875  .00003563  00000-0  22572-3 0  9996
2 69543  97.6928 327.2769 0015816 329.2987  30.7315 15.09521367 13672

AllMySatでJILIN-1 GAOFEN 07D 02 XINGをリアルタイム追跡

Download on the App Store